Regional Weather Roundup
Issued by NWS Northern Indiana

Home | Current Version | Previous Version | Graphics & Text | Print | Product List | Glossary On
Versions: 1 2 3 4 5 6 7 8 9 10 11 12 13 14 15 16 17 18 19 20 21 22 23 24 25 26 27 28 29 30 31 32 33 34 35 36 37 38 39 40 41 42 43 44 45 46 47 48 49 50
474
ASUS43 KIWX 222010
RWRIWX

KIWX WEATHER ROUNDUP
NATIONAL WEATHER SERVICE NORTHERN INDIANA
400 PM EDT TUE AUG 22 2017

NOTE: "FAIR" INDICATES FEW OR NO CLOUDS BELOW 12,000 FEET WITH NO
SIGNIFICANT WEATHER AND/OR OBSTRUCTIONS TO VISIBILITY.

* THESE STATIONS ARE NOT UNDER NWS QUALITY CONTROL. THEY ALSO MAY NOT
  REPORT WEATHER SUCH AS PRECIPITATION OR FOG.

INZ001>027-222100-
NORTHERN INDIANA

CITY           SKY/WX    TMP DP  RH WIND       PRES   REMARKS
GARY*          PTSUNNY   81  57  44 W16       29.90F
VALPARAISO     PTSUNNY   81  65  58 NW9G21    29.90F
MICHIGAN CITY* MOSUNNY   77  61  57 NW7       29.91S
LAPORTE*       MOSUNNY   76  64  66 NW10G17   29.91S
KNOX*          PTSUNNY   73  64  73 NW9       29.89S
SOUTH BEND     MOSUNNY   76  64  66 NW20G25   29.89F
ELKHART*       MOSUNNY   73  66  78 W17G23    29.88F
GOSHEN         PTSUNNY   75  63  66 NW18G29   29.87F
MONTICELLO*    CLOUDY    77  66  70 W13       29.89F
LOGANSPORT*    PTSUNNY   77  68  73 W12G20    29.90F
ROCHESTER*     MOSUNNY  N/A N/A N/A W15       29.88F
WARSAW*        CLOUDY    73  64  73 W16       29.88S
AUBURN*        CLOUDY    75  66  73 SW8G16    29.86F
FORT WAYNE     CLOUDY    77  66  68 W15G23    29.86F
HUNTINGTON*    CLOUDY    77  66  68 SW15G23   29.87F
PERU/GRISSOM   PTSUNNY   77  68  73 W15G25    29.89F
MARION*        PTSUNNY   77  68  73 W13       29.91F

$$
INZ028>050-222100-
CENTRAL INDIANA

CITY           SKY/WX    TMP DP  RH WIND       PRES   REMARKS
LAFAYETTE      PTSUNNY   77  68  73 W10G21    29.90F
KOKOMO*        CLOUDY    77  67  71 W17       29.91F
MUNCIE*        CLOUDY    79  67  66 W10       29.90F
INDIANAPOLIS   PTSUNNY   81  68  64 W16       29.91F

$$
MIZ043>046-050>051-056>058-064>065-071>073-077>080-222100-
SOUTHWEST LOWER MICHIGAN

CITY           SKY/WX    TMP DP  RH WIND       PRES   REMARKS
BATTLE CREEK   PTSUNNY   76  64  66 NW20      29.85F
BENTON HARBOR  MOSUNNY   77  63  61 W16       29.88F
COLDWATER*     CLOUDY    75  62  62 W16G22    29.85F
HILLSDALE*     CLOUDY    73  63  68 W17G24    29.84S
HOLLAND        MOSUNNY   74  61  63 N14G23    29.87R
GRAND RAPIDS   PTSUNNY   76  61  59 W21G29    29.82S
KALAMAZOO      PTSUNNY   77  60  55 W18G25    29.86S
STURGIS*       CLOUDY    74  62  66 NW12G24   29.86F
THREE RIVERS*  PTSUNNY   77  61  57 NW20      29.87S

$$
OHZ001>008-015>018-024>025-222100-
NORTHWEST OHIO

CITY           SKY/WX    TMP DP  RH WIND       PRES   REMARKS
WAUSEON*       PTSUNNY   75  70  83 W10G18    29.82
DEFIANCE       CLOUDY    77  65  66 VRB7G20   29.83F
FINDLAY        CLOUDY    79  66  64 W16G23    29.83F
TOLEDO EXPRESS PTSUNNY   78  67  68 W23       29.81F
TOLEDO METCALF CLOUDY    78  67  68 W18G26    29.81F
LIMA           CLOUDY    77  68  73 W16G23    29.87F

$$
AND FOR LAKE MICHIGAN COASTAL AND OPEN LAKE BUOY OBSERVATIONS

STATION/POSITION TEMP    WIND        PRES    VSBY  WAVE
                 AIR SEA DIR/SP/G                  HT/PER
                 (F)     (DEG/KT/KT) (MB)    (MI)  (FT/S)
CALUMET HARBOR    80     320/ 11/ 16 1011.6F
MICHIGAN CITY     74     280/ 14/ 15   N/A
BURNS HARBOR      74     280/  8/ 10 1012.9S
SAINT JOSEPH      76     270/ 11/ 14 1012.2
SOUTH LAKE BUOY   72 72  350/ 17/ 21 1011.2          3/ 4
4 MI NW BRIDGMAN  72 74  290/ 12/ 16 1011.9          4/ 5
MICHIGAN CITY     74 74  290/  8/ 10   N/A           3/ 5

$$
&&




USA.gov is the U.S. government's official web portal to all federal, state and local government web resources and services.